Weather History for Moose Lake, MN

Change the Weather History Date:

Monday, December 3, 2012

  Actual Average Record
Temperature  
Mean Temperature 42 °F -  
Max Temperature 50 °F 26 °F 56 °F (1962)
Min Temperature 35 °F 8 °F -27 °F (1985)
Degree Days  
Heating Degree Days 22    
Moisture  
Dew Point 34 °F    
Average Humidity 71    
Maximum Humidity 87    
Minimum Humidity 49    
Precipitation  
Precipitation 0.00 in - - ()
Sea Level Pressure  
Sea Level Pressure 29.62 in    
Wind  
Wind Speed 9 mph (SW)    
Max Wind Speed 17 mph    
Max Gust Speed 24 mph    
Visibility 6 miles    
Events      
Averages and records for this station are not official NWS values.
T = Trace of Precipitation, MM = Missing Value Source: NWS Daily Summary

Daily Weather History Graph

Daily Weather History Graph

Search for Another Location

Airport:

Trip Planner

Search our weather history database for the weather conditions in past years. The results will help you decide how hot, cold, wet, or windy it might be!

Date:

Astronomy

Dec. 03, 2012 Rise Set
Actual Time 7:37 AM CST 4:25 PM CST
Civil Twilight 7:02 AM CST 4:59 PM CST
Nautical Twilight 6:24 AM CST 5:37 PM CST
Astronomical Twilight 5:48 AM CST 6:13 PM CST
Moon 9:22 PM CST (12/3) 10:52 AM CST (12/3)
Length of Visible Light 9h 56m
Length of Day
8h 48m
Waning Gibbous, 78% of the Moon is Illuminated
Dec 3
Waning Gibbous
Dec 6
Last Quarter
Dec 13
New
Dec 19
First Quarter
Dec 28
Full

Hourly Weather History & Observations

Time (CST) Temp. Windchill Dew Point Humidity Pressure Visibility Wind Dir Wind Speed Gust Speed Precip Events Conditions
12:10 AM 35.6 °F 29.9 °F 32.0 °F 87% 29.74 in 5.0 mi South 6.9 mph - N/A   Haze
12:30 AM 35.6 °F 31.7 °F 32.0 °F 87% 29.74 in 5.0 mi South 4.6 mph - N/A   Haze
12:50 AM 37.4 °F 33.8 °F 32.0 °F 81% 29.73 in 5.0 mi SSE 4.6 mph - N/A   Haze
1:10 AM 37.4 °F 31.4 °F 32.0 °F 81% 29.72 in 5.0 mi South 8.1 mph - N/A   Haze
1:30 AM 37.4 °F 31.4 °F 32.0 °F 81% 29.72 in 5.0 mi South 8.1 mph - N/A   Haze
1:51 AM 39.2 °F 34.2 °F 33.8 °F 81% 29.70 in 4.0 mi South 6.9 mph - N/A   Haze
2:10 AM 41.0 °F 34.3 °F 33.8 °F 76% 29.69 in 4.0 mi South 11.5 mph - N/A   Haze
2:31 AM 41.0 °F 35.2 °F 33.8 °F 76% 29.69 in 4.0 mi South 9.2 mph 18.4 mph N/A   Haze
2:50 AM 41.0 °F 35.8 °F 35.6 °F 81% 29.68 in 4.0 mi South 8.1 mph - N/A   Haze
3:11 AM 41.0 °F 36.4 °F 33.8 °F 76% 29.68 in 4.0 mi South 6.9 mph - N/A   Haze
3:30 AM 41.0 °F 36.4 °F 35.6 °F 81% 29.67 in 4.0 mi South 6.9 mph - N/A   Haze
3:50 AM 41.0 °F 37.1 °F 35.6 °F 81% 29.66 in 4.0 mi South 5.8 mph - N/A   Haze
4:10 AM 41.0 °F 35.8 °F 35.6 °F 81% 29.65 in 4.0 mi South 8.1 mph - N/A   Haze
4:50 AM 42.8 °F 38.0 °F 35.6 °F 76% 29.63 in 4.0 mi South 8.1 mph - N/A   Haze
5:10 AM 42.8 °F 36.6 °F 35.6 °F 76% 29.62 in 4.0 mi South 11.5 mph 18.4 mph N/A   Haze
5:30 AM 42.8 °F 38.0 °F 35.6 °F 76% 29.61 in 4.0 mi South 8.1 mph 17.3 mph N/A   Haze
5:51 AM 42.8 °F 37.0 °F 35.6 °F 76% 29.60 in 4.0 mi South 10.4 mph 18.4 mph N/A   Haze
6:10 AM 42.8 °F 38.0 °F 35.6 °F 76% 29.60 in 4.0 mi SSE 8.1 mph 16.1 mph N/A   Haze
6:30 AM 42.8 °F 38.6 °F 35.6 °F 76% 29.58 in 2.5 mi South 6.9 mph - N/A   Haze
6:50 AM 42.8 °F 39.3 °F 37.4 °F 81% 29.57 in 1.8 mi South 5.8 mph - N/A   Haze
7:10 AM 42.8 °F 38.6 °F 37.4 °F 81% 29.57 in 1.5 mi SSE 6.9 mph - N/A   Haze
7:30 AM 42.8 °F 38.0 °F 37.4 °F 81% 29.55 in 1.5 mi SSE 8.1 mph - N/A   Haze
7:51 AM 42.8 °F 40.1 °F 37.4 °F 81% 29.56 in 1.5 mi South 4.6 mph - N/A   Haze
8:10 AM 42.8 °F 38.6 °F 37.4 °F 81% 29.55 in 1.2 mi South 6.9 mph - N/A   Haze
8:31 AM 44.6 °F 39.7 °F 39.2 °F 81% 29.52 in 0.8 mi SSE 9.2 mph - N/A   Haze
9:10 AM 44.6 °F 40.2 °F 41.0 °F 87% 29.52 in 1.0 mi South 8.1 mph - N/A   Overcast
9:30 AM 46.4 °F 40.7 °F 42.8 °F 87% 29.51 in 1.5 mi SSW 12.7 mph 19.6 mph N/A   Haze
9:50 AM 48.2 °F - 42.8 °F 82% 29.50 in 1.8 mi South 11.5 mph 17.3 mph N/A   Haze
10:10 AM 48.2 °F - 42.8 °F 82% 29.51 in 1.5 mi SSW 10.4 mph 18.4 mph N/A   Haze
10:30 AM 48.2 °F - 44.6 °F 87% 29.51 in 1.2 mi SSW 9.2 mph 16.1 mph N/A   Overcast
10:50 AM 50.0 °F - 44.6 °F 82% 29.50 in 1.2 mi SSW 9.2 mph - N/A   Haze
11:10 AM 50.0 °F - 44.6 °F 82% 29.49 in 2.0 mi South 9.2 mph - N/A   Haze
11:31 AM 50.0 °F - 44.6 °F 82% 29.48 in 2.5 mi SSW 8.1 mph - N/A   Haze
11:50 AM 50.0 °F - 44.6 °F 82% 29.47 in 2.5 mi SW 11.5 mph - N/A   Haze
12:10 PM 50.0 °F - 44.6 °F 82% 29.47 in 3.0 mi WSW 9.2 mph - N/A   Haze
12:30 PM 50.0 °F - 42.8 °F 76% 29.48 in 5.0 mi WSW 8.1 mph - N/A   Haze
12:50 PM 50.0 °F - 42.8 °F 76% 29.47 in 5.0 mi SW 9.2 mph - N/A   Haze
1:10 PM 50.0 °F - 41.0 °F 71% 29.48 in 7.0 mi WSW 11.5 mph 19.6 mph N/A   Overcast
1:30 PM 50.0 °F - 41.0 °F 71% 29.48 in 7.0 mi WSW 12.7 mph 16.1 mph N/A   Overcast
1:50 PM 48.2 °F - 39.2 °F 71% 29.48 in 7.0 mi WSW 10.4 mph 18.4 mph N/A   Overcast
2:10 PM 50.0 °F - 37.4 °F 62% 29.49 in 7.0 mi West 9.2 mph - N/A   Overcast
2:30 PM 50.0 °F - 37.4 °F 62% 29.49 in 7.0 mi West 10.4 mph - N/A   Overcast
2:50 PM 48.2 °F - 35.6 °F 62% 29.52 in 10.0 mi West 9.2 mph - N/A   Overcast
3:10 PM 48.2 °F - 35.6 °F 62% 29.53 in 10.0 mi West 9.2 mph 16.1 mph N/A   Overcast
3:31 PM 48.2 °F - 33.8 °F 58% 29.54 in 10.0 mi West 11.5 mph - N/A   Overcast
3:50 PM 46.4 °F 40.1 °F 33.8 °F 62% 29.57 in 10.0 mi West 15.0 mph 19.6 mph N/A   Overcast
4:11 PM 46.4 °F 41.9 °F 33.8 °F 62% 29.59 in 10.0 mi West 9.2 mph - N/A   Scattered Clouds
4:30 PM 44.6 °F 38.4 °F 33.8 °F 66% 29.61 in 10.0 mi West 12.7 mph 21.9 mph N/A   Clear
4:50 PM 44.6 °F 38.1 °F 32.0 °F 61% 29.63 in 10.0 mi West 13.8 mph 20.7 mph N/A   Clear
5:10 PM 42.8 °F 38.0 °F 32.0 °F 66% 29.63 in 10.0 mi WSW 8.1 mph - N/A   Clear
5:31 PM 42.8 °F 38.0 °F 32.0 °F 66% 29.64 in 10.0 mi WSW 8.1 mph - N/A   Clear
5:50 PM 41.0 °F 35.8 °F 32.0 °F 70% 29.66 in 10.0 mi SW 8.1 mph - N/A   Clear
6:10 PM 41.0 °F 35.8 °F 32.0 °F 70% 29.66 in 10.0 mi WSW 8.1 mph - N/A   Clear
6:31 PM 41.0 °F 35.8 °F 32.0 °F 70% 29.67 in 10.0 mi WSW 8.1 mph - N/A   Clear
6:51 PM 41.0 °F 35.8 °F 30.2 °F 65% 29.69 in 10.0 mi WSW 8.1 mph - N/A   Scattered Clouds
7:11 PM 41.0 °F 35.2 °F 30.2 °F 65% 29.69 in 10.0 mi WSW 9.2 mph - N/A   Clear
7:30 PM 41.0 °F 34.7 °F 30.2 °F 65% 29.69 in 10.0 mi WSW 10.4 mph 17.3 mph N/A   Clear
7:50 PM 41.0 °F 34.7 °F 30.2 °F 65% 29.69 in 10.0 mi WSW 10.4 mph - N/A   Clear
8:10 PM 41.0 °F 33.5 °F 28.4 °F 61% 29.70 in 10.0 mi WSW 13.8 mph - N/A   Scattered Clouds
8:30 PM 41.0 °F 33.5 °F 28.4 °F 61% 29.70 in 10.0 mi WSW 13.8 mph 20.7 mph N/A   Scattered Clouds
8:50 PM 41.0 °F 33.5 °F 24.8 °F 53% 29.71 in 10.0 mi WSW 13.8 mph 24.2 mph N/A   Clear
9:10 PM 41.0 °F 32.5 °F 23.0 °F 49% 29.72 in 10.0 mi WSW 17.3 mph 23.0 mph N/A   Clear
9:30 PM 41.0 °F 33.5 °F 23.0 °F 49% 29.72 in 10.0 mi WSW 13.8 mph 19.6 mph N/A   Clear
9:50 PM 41.0 °F 34.7 °F 23.0 °F 49% 29.73 in 10.0 mi WSW 10.4 mph 16.1 mph N/A   Clear
10:10 PM 39.2 °F 33.0 °F 23.0 °F 52% 29.73 in 10.0 mi WSW 9.2 mph 19.6 mph N/A   Clear
10:30 PM 37.4 °F 30.8 °F 23.0 °F 56% 29.74 in 10.0 mi WSW 9.2 mph 16.1 mph N/A   Clear
10:50 PM 37.4 °F 31.4 °F 23.0 °F 56% 29.74 in 10.0 mi West 8.1 mph 18.4 mph N/A   Clear
11:11 PM 37.4 °F 31.4 °F 21.2 °F 52% 29.76 in 10.0 mi West 8.1 mph 17.3 mph N/A   Clear
11:31 PM 37.4 °F 29.3 °F 21.2 °F 52% 29.77 in 10.0 mi West 12.7 mph 20.7 mph N/A   Clear
11:51 PM 35.6 °F 26.2 °F 21.2 °F 56% 29.78 in 10.0 mi West 15.0 mph 24.2 mph N/A   Clear